Weather History for Guatemala Aeropuertola Aurora, Guatemala

Change the Weather History Date:

Saturday, July 20, 2013

  Actual Average Record
Temperature  
Mean Temperature 68 °F -  
Max Temperature 75 °F 75 °F - ()
Min Temperature 61 °F 60 °F - ()
Cooling Degree Days 3    
Growing Degree Days 18 (Base 50)    
Moisture  
Dew Point 61 °F    
Average Humidity 84    
Maximum Humidity 100    
Minimum Humidity 50    
Precipitation  
Precipitation 0.00 in - - ()
Sea Level Pressure  
Sea Level Pressure 30.24 in    
Wind  
Wind Speed 9 mph ()    
Max Wind Speed 14 mph    
Max Gust Speed -    
Visibility 5.5 miles    
Events Rain , Thunderstorm    
T = Trace of Precipitation, MM = Missing Value Source: Averaged Metar Reports

Daily Weather History Graph

Daily Weather History Graph

Search for Another Location

Airport:

Trip Planner

Search our weather history database for the weather conditions in past years. The results will help you decide how hot, cold, wet, or windy it might be!

Date:

Astronomy

Jul. 20, 2013 Rise Set
Actual Time 5:42 AM CST 6:34 PM CST
Civil Twilight 5:19 AM CST 6:57 PM CST
Nautical Twilight 4:52 AM CST 7:24 PM CST
Astronomical Twilight 4:24 AM CST 7:52 PM CST
Moon 4:39 PM CST (7/20) 3:22 AM CST (7/20)
Length of Visible Light 13h 38m
Length of Day
12h 52m
Waxing Gibbous, 94% of the Moon is Illuminated
Jul 20
Waxing Gibbous
Jul 22
Full
Jul 29
Last Quarter
Aug 6
New
Aug 14
First Quarter

Hourly Weather History & Observations

Time (CST) Temp. Dew Point Humidity Pressure Visibility Wind Dir Wind Speed Gust Speed Precip Events Conditions
12:00 AM 64.4 °F 60.8 °F 88% 30.30 in 6.2 mi NNE 13.8 mph - N/A   Mostly Cloudy
1:00 AM 62.6 °F 60.8 °F 94% 30.30 in 6.2 mi North 11.5 mph - N/A   Scattered Clouds
1:02 AM - - N/A% - 6.2 mi North 11.5 mph - N/A   Mostly Cloudy
2:00 AM 62.6 °F 60.8 °F 94% 30.27 in 6.2 mi North 11.5 mph - N/A   Overcast
3:00 AM 62.6 °F 60.8 °F 94% 30.27 in 6.2 mi North 9.2 mph - N/A   Mostly Cloudy
4:00 AM 62.6 °F 60.8 °F 94% 30.24 in 6.2 mi North 11.5 mph - N/A   Mostly Cloudy
5:00 AM 62.6 °F 60.8 °F 94% 30.24 in 6.2 mi NNE 11.5 mph - N/A   Mostly Cloudy
6:00 AM 63 °F 61 °F 90% 29.97 in 25 mi North 11.5 mph - -   Overcast
6:00 AM 62.6 °F 60.8 °F 94% 30.27 in 6.2 mi North 11.5 mph - N/A   Mostly Cloudy
7:00 AM 64.4 °F 62.6 °F 94% 30.27 in 6.2 mi North 11.5 mph - N/A   Overcast
8:00 AM 66.2 °F 59.0 °F 78% 30.30 in 6.2 mi North 13.8 mph - N/A   Mostly Cloudy
9:00 AM 69.8 °F 57.2 °F 64% 30.30 in 6.2 mi North 13.8 mph - N/A   Mostly Cloudy
10:00 AM 71.6 °F 60.8 °F 69% 30.30 in 6.2 mi North 13.8 mph - N/A   Scattered Clouds
11:00 AM 73.4 °F 60.8 °F 65% 30.30 in 6.2 mi North 13.8 mph - N/A   Scattered Clouds
12:00 PM 75 °F 60 °F 50% 29.93 in 25 mi North 13.8 mph - -   Mostly Cloudy
12:00 PM 75.2 °F 60.8 °F 61% 30.27 in 6.2 mi North 13.8 mph - N/A   Partly Cloudy
1:00 PM 75.2 °F 62.6 °F 65% 30.27 in 6.2 mi North 13.8 mph - N/A   Scattered Clouds
2:00 PM 73.4 °F 62.6 °F 69% 30.21 in 6.2 mi NNE 13.8 mph - N/A Rain , Thunderstorm Light Thunderstorms and Rain
3:00 PM 71.6 °F 64.4 °F 78% 30.18 in 6.2 mi NNE 11.5 mph - N/A   Scattered Clouds
3:15 PM - - N/A% - 5.0 mi NNE 9.2 mph - N/A Thunderstorm Thunderstorm
3:40 PM - - N/A% - 4.3 mi SSW 6.9 mph - N/A Rain , Thunderstorm Light Thunderstorms and Rain
4:00 PM 66.2 °F 62.6 °F 88% 30.18 in 6.2 mi South 6.9 mph - N/A Rain , Thunderstorm Light Thunderstorms and Rain
4:05 PM - - N/A% - 3.7 mi SSW 11.5 mph - N/A Rain , Thunderstorm Thunderstorms and Rain
4:35 PM - - N/A% - 3.1 mi SSW 9.2 mph - N/A Rain , Thunderstorm Light Thunderstorms and Rain
5:00 PM 62.6 °F 62.6 °F 100% 30.24 in 3.1 mi SSW 4.6 mph - N/A Rain , Thunderstorm Thunderstorms and Rain
5:10 PM - - N/A% - 1.2 mi South 9.2 mph - N/A Rain , Thunderstorm Light Thunderstorms and Rain
5:25 PM - - N/A% - 6.2 mi South 4.6 mph - N/A Rain , Thunderstorm Light Thunderstorms and Rain
6:00 PM 62.6 °F 60.8 °F 94% 30.24 in 6.2 mi Calm Calm - N/A   Mostly Cloudy
7:00 PM 62.6 °F 62.6 °F 100% 30.24 in 6.2 mi Calm Calm - N/A   Light Drizzle
8:00 PM 64.4 °F 62.6 °F 94% 30.27 in 6.2 mi Calm Calm - N/A   Mostly Cloudy
9:00 PM 64.4 °F 62.6 °F 94% 30.27 in 6.2 mi Calm Calm - N/A   Mostly Cloudy
10:00 PM 64.4 °F 62.6 °F 94% 30.30 in 6.2 mi NE 4.6 mph - N/A   Scattered Clouds
10:15 PM - - N/A% - 0.6 mi NE 6.9 mph - N/A Rain Heavy Rain
10:38 PM - - N/A% - 5.0 mi North 9.2 mph - N/A Rain Light Rain
11:00 PM 62.6 °F 60.8 °F 94% 30.33 in 6.2 mi West 6.9 mph - N/A   Drizzle